NOAA 16 DEB, 41283

Orbit data source: Space-Track

NOAA 16 DEB, 41283 is space debris in SSO originally from a launch on Thu, 21 Sep 2000 UTC launched from the Air Force Western Test Range (AFWTR). Debris objects in space refer to the collection of defunct objects orbiting the Earth. Examples of debris include non-operational satellites, rocket bodies, and fragments generated from explosions, collisions, or faulty payload assembly.

Loading next visibility...
Identifier
41283, 2000-055GK
Orbit
SSO
Country
Flag of USUS
Related business
Manufacturer
Unknown
Mission
Spacecraft
Bus & Motor
Unknown
Mass
Unknown
Launch date (UTC)
2000-09-21 (26 years ago)
Launch vehicle
Unknown
Launch site
Air Force Western Test Range (AFWTR)
Object type
Payload
Rocket body
Debris
Shape & HBR
Unknown shape, 0.1 m
Radar Cross Section
Medium (>0.1 m² and <1 m²)

Expand to show TLE details & history
Last TLE update: 5 days ago

TLE from 5 days ago
0 NOAA 16 DEB
1 41283U 00055GK  26231.16962411  .00001590  00000-0  91876-3 0  9991
2 41283  98.8417 208.8093 0057904 179.8636 180.2560 14.09580013545515
Epoch: 2026-08-19T04:04Z
TLE epoch observation values (Epoch: 2026-08-19T04:04:15.523Z)
Latitude
0.00002°
Longitude
-179.78233°
Altitude
905.63 km
Speed
7.378 km/s
True Right ascension
13h 55m 14s
True Declination
0° 00' 00"
Sunlit
Object was in daylight at epoch
Visualization orbit readout
Latitude
Unknown
Longitude
Unknown
Altitude
Unknown
Speed
Unknown
Apparent Right ascension
Unknown
Apparent Declination
Unknown
Sunlit
N/A
Visualization observer readout
Local Sidereal Time
05:20:18
Azimuth
Unknown
Elevation
Unknown
Doppler factor
Unknown
Orbital elements
Apogee altitude
899.888 km
Perigee altitude
816.088 km
Semi-major axis
7,236.125 km
Eccentricity
0.00579
Inclination
98.8417°
RAAN
208.8093°
Arg. of periapsis
179.8636°
True anomaly
180.25306°
Mean anomaly
180.256°
Eccentric anomaly
180.25453°
Mean motion
3.52601 °/min
Orbital period
102.1 mins
BSTAR
0.00091876
Loading maneuver chart data...
Computing Atmospheric mass density...
Loading historical data...
Loading historical data...
Loading historical data...
Loading historical data...
Loading historical data...
Loading historical data...
Loading historical data...

Documentation

Showing up to 5 results
|